Location: Brompton
(51.4000°N, 0.5333°E)
Time: 17:22:22
(UTC+00:00)

Cosmos 1536 - Pass Details

Date: 01 October 2021
Orbit: 539 x 557 km, 82.5° (Epoch: 28 October)

Event Time Altitude Azimuth Distance (km) Brightness Sun altitude
Rises 03:29:53 0° 347° (NNW) 2,712 6.5 -23.4°
Reaches altitude 10° 03:32:04 10° 346° (NNW) 1,815 5.6 -23.0°
Enters shadow 03:34:43 40° 335° (NNW) 812 3.6 -22.7°
